This demonstration page uses our WeatherBlox Daily Observations layout. Learn more.

Left ArrowRight Arrow

Hourly Observations for January 4, 2015

Temp ( °F °C ) Dew Point ( °F °C ) Humidity (%) Winds ( mph kmh ) Pressure ( in mb ) Visibility ( mi km ) Precip ( " mm )
12:51 am 00:51 Clear 29 -1.7 25 -3.9 85 85 SE 3 6 30.31 1026 10 16 N/A
1:51 am 01:51 Clear 29 -1.7 25 -3.9 85 85 SE 5 7 30.33 1027 10 16 N/A
2:51 am 02:51 Clear 27 -2.8 24 -4.4 89 89 SE 7 11 30.35 1028 10 16 N/A
3:51 am 03:51 Clear 28 -2.2 25 -3.9 88 88 SSE 9 15 30.35 1028 10 16 N/A
4:51 am 04:51 Clear 28 -2.2 24 -4.4 85 85 SSE 10 17 30.36 1028 10 16 N/A
5:51 am 05:51 Clear 32 undefined 25 -3.9 75 75 ESE 12 19 30.37 1028 10 16 N/A
6:51 am 06:51 Clear 32 undefined 25 -3.9 75 75 ESE 12 19 30.39 1029 10 16 N/A
7:51 am 07:51 Sunny 32 undefined 25 -3.9 75 75 ESE 10 17 30.42 1030 10 16 N/A
8:51 am 08:51 Sunny 38 3.3 26 -3.3 62 62 SE 8 13 30.43 1031 10 16 N/A
9:51 am 09:51 Sunny 40 4.4 28 -2.2 63 63 S 7 11 30.47 1032 10 16 N/A
10:51 am 10:51 Sunny 44 6.7 28 -2.2 53 53 S 13 20 30.45 1031 10 16 N/A
11:51 am 11:51 Sunny 48 8.9 27 -2.8 44 44 SE 7 11 30.42 1030 10 16 N/A
12:51 pm 12:51 Sunny 50 10 28 -2.2 43 43 SE 9 15 30.37 1029 10 16 N/A
1:51 pm 13:51 Sunny 54 12.2 27 -2.8 35 35 E 8 13 30.35 1028 10 16 N/A
2:51 pm 14:51 Sunny 56 13.3 27 -2.8 33 33 SSE 8 13 30.33 1027 10 16 N/A
3:51 pm 15:51 Sunny 57 13.9 27 -2.8 32 32 S 8 13 30.33 1027 10 16 N/A
4:51 pm 16:51 Sunny 56 13.3 27 -2.8 33 33 S 5 7 30.34 1027 10 16 N/A
5:51 pm 17:51 Clear 49 9.4 29 -1.7 46 46 ESE 3 6 30.36 1028 10 16 N/A
6:51 pm 18:51 Clear 47 8.3 29 -1.7 50 50 ESE 8 13 30.37 1029 10 16 N/A
7:51 pm 19:51 Clear 43 6.1 30 -1.1 60 60 SE 8 13 30.39 1029 10 16 N/A
8:51 pm 20:51 Clear 39 3.9 30 -1.1 70 70 ESE 8 13 30.39 1029 10 16 N/A
9:51 pm 21:51 Clear 40 4.4 29 -1.7 65 65 ESE 8 13 30.40 1030 10 16 N/A
10:51 pm 22:51 Clear 41 5 27 -2.8 57 57 SE 9 15 30.40 1029 10 16 N/A
11:51 pm 23:51 Clear 40 4.4 27 -2.8 60 60 SE 13 20 30.39 1029 10 16 N/A

Powered by AerisWeather